Location: Nordegg
(52.4712°N, 116.0743°W)
Time: 02:39:54
(UTC+00:00)

Envisat - Visible Passes

Search period start: 02 October 2022 00:00
Search period end: 12 October 2022 00:00
Orbit: 764 x 765 km, 98.2° (Epoch: 01 October)

Date Brightness Start Highest point End Pass type
(mag) Time Alt. Az. Time Alt. Az. Time Alt. Az.
02 Oct 5.0 11:17:10 10° NE 11:21:31 27° E 11:25:49 10° SSE visible
02 Oct 3.2 12:55:51 10° N 13:00:48 52° WNW 13:05:43 10° SW visible
03 Oct 5.8 10:41:22 10° NE 10:44:04 14° E 10:46:47 10° ESE visible
03 Oct 3.1 12:18:47 10° NNE 12:23:54 83° ESE 12:28:59 10° SSW visible
04 Oct 4.2 11:41:57 10° NNE 11:46:48 43° E 11:51:38 10° S visible
05 Oct 5.3 11:05:33 10° NE 11:09:31 23° E 11:13:29 10° SE visible
05 Oct 3.0 12:43:56 10° N 12:48:58 64° WNW 12:53:59 10° SSW visible
06 Oct 6.0 10:30:25 10° ENE 10:32:01 11° E 10:33:38 10° ESE visible
06 Oct 3.3 12:06:55 10° NNE 12:12:01 68° ESE 12:17:04 10° S visible
07 Oct 4.5 11:30:12 10° NNE 11:34:53 35° E 11:39:30 10° SSE visible
07 Oct 3.4 13:09:12 10° N 13:13:58 41° WNW 13:18:43 10° SW visible
08 Oct 5.6 10:54:00 10° NE 10:57:31 18° E 11:01:00 10° SE visible
08 Oct 2.9 12:32:02 10° NNE 12:37:08 78° WNW 12:42:13 10° SSW visible
09 Oct 3.7 11:55:06 10° NNE 12:00:07 55° E 12:05:06 10° S visible
10 Oct 4.9 11:18:30 10° NNE 11:22:54 29° E 11:27:16 10° SSE visible
10 Oct 3.2 12:57:14 10° N 13:02:09 50° WNW 13:07:03 10° SW visible
11 Oct 5.8 10:42:36 10° NE 10:45:29 15° E 10:48:21 10° ESE visible
11 Oct 3.0 12:20:08 10° NNE 12:25:16 86° ESE 12:30:22 10° SSW visible
